Previsão horária em Al Khums

Hoje, 25 Junho, Sexta-feira

Tempo Temperatura Precipitação Vento Pressão Humidade
00:00 +33°C° 0 mm 3 m/s 760 mmHg 31%
01:00 +31°C° 0 mm 3 m/s 760 mmHg 30%
02:00 +31°C° 0 mm 3 m/s 760 mmHg 30%
03:00 +31°C° 0 mm 3 m/s 760 mmHg 30%
04:00 +31°C° 0 mm 3 m/s 759 mmHg 30%
05:00 +33°C° 0 mm 4 m/s 759 mmHg 28%
06:00 +34°C° 0 mm 4 m/s 759 mmHg 26%
07:00 +36°C° 0 mm 4 m/s 760 mmHg 23%
08:00 +38°C° 0 mm 4 m/s 760 mmHg 20%
09:00 +39°C° 0 mm 3 m/s 760 mmHg 18%
10:00 +42°C° 0 mm 3 m/s 760 mmHg 16%
11:00 +41°C° 0 mm 4 m/s 760 mmHg 19%
12:00 +40°C° 0 mm 6 m/s 760 mmHg 23%
13:00 +39°C° 0 mm 7 m/s 760 mmHg 26%
14:00 +39°C° 0 mm 7 m/s 760 mmHg 27%
15:00 +39°C° 0 mm 6 m/s 759 mmHg 28%
16:00 +38°C° 0 mm 6 m/s 759 mmHg 30%
17:00 +36°C° 0 mm 4 m/s 759 mmHg 33%
18:00 +34°C° 0 mm 3 m/s 759 mmHg 36%
19:00 +32°C° 0 mm 1 m/s 759 mmHg 39%
20:00 +32°C° 0 mm 2 m/s 760 mmHg 38%
21:00 +31°C° 0 mm 2 m/s 760 mmHg 37%
22:00 +31°C° 0 mm 3 m/s 760 mmHg 36%
23:00 +31°C° 0 mm 3 m/s 759 mmHg 35%

Amanhã, 26 Junho, Sábado

Tempo Temperatura Precipitação Vento Pressão Humidade
00:00 +32°C° 0 mm 4 m/s 759 mmHg 33%
01:00 +32°C° 0 mm 4 m/s 759 mmHg 32%
02:00 +32°C° 0 mm 4 m/s 759 mmHg 32%
03:00 +30°C° 0 mm 3 m/s 759 mmHg 32%
04:00 +30°C° 0 mm 3 m/s 759 mmHg 33%
05:00 +32°C° 0 mm 4 m/s 759 mmHg 30%
06:00 +34°C° 0 mm 5 m/s 759 mmHg 27%
07:00 +35°C° 0 mm 6 m/s 759 mmHg 24%
08:00 +37°C° 0 mm 5 m/s 759 mmHg 21%
09:00 +41°C° 0 mm 5 m/s 759 mmHg 18%
10:00 +43°C° 0 mm 4 m/s 759 mmHg 16%
11:00 +43°C° 0 mm 4 m/s 758 mmHg 17%
12:00 +43°C° 0 mm 5 m/s 758 mmHg 18%
13:00 +44°C° 0 mm 6 m/s 758 mmHg 20%
14:00 +42°C° 0 mm 6 m/s 758 mmHg 22%
15:00 +41°C° 0 mm 6 m/s 757 mmHg 23%
16:00 +41°C° 0 mm 7 m/s 757 mmHg 25%
17:00 +39°C° 0 mm 6 m/s 757 mmHg 30%
18:00 +36°C° 0 mm 5 m/s 757 mmHg 35%
19:00 +34°C° 0 mm 4 m/s 757 mmHg 40%
20:00 +33°C° 0 mm 4 m/s 758 mmHg 37%
21:00 +33°C° 0 mm 4 m/s 758 mmHg 35%
22:00 +33°C° 0 mm 4 m/s 758 mmHg 32%
23:00 +33°C° 0 mm 4 m/s 758 mmHg 32%

Depois de amanhã, 27 Junho, Domingo

Tempo Temperatura Precipitação Vento Pressão Humidade
00:00 +33°C° 0 mm 5 m/s 758 mmHg 31%
01:00 +32°C° 0 mm 5 m/s 757 mmHg 30%
02:00 +32°C° 0 mm 5 m/s 757 mmHg 29%
03:00 +32°C° 0 mm 5 m/s 757 mmHg 29%
04:00 +32°C° 0 mm 5 m/s 757 mmHg 28%
05:00 +33°C° 0 mm 4 m/s 757 mmHg 26%
06:00 +35°C° 0 mm 3 m/s 757 mmHg 24%
07:00 +36°C° 0 mm 3 m/s 757 mmHg 22%
08:00 +38°C° 0 mm 3 m/s 757 mmHg 20%
09:00 +41°C° 0 mm 4 m/s 757 mmHg 17%
10:00 +43°C° 0 mm 4 m/s 758 mmHg 15%
11:00 +43°C° 0 mm 5 m/s 757 mmHg 16%
12:00 +43°C° 0 mm 5 m/s 757 mmHg 18%
13:00 +43°C° 0 mm 5 m/s 757 mmHg 20%
14:00 +42°C° 0 mm 6 m/s 757 mmHg 21%
15:00 +41°C° 0 mm 6 m/s 757 mmHg 23%
16:00 +40°C° 0 mm 6 m/s 757 mmHg 25%
17:00 +39°C° 0 mm 6 m/s 757 mmHg 25%
18:00 +38°C° 0 mm 6 m/s 757 mmHg 25%
19:00 +36°C° 0 mm 5 m/s 757 mmHg 26%
20:00 +35°C° 0 mm 5 m/s 757 mmHg 26%
21:00 +34°C° 0 mm 5 m/s 758 mmHg 26%
22:00 +34°C° 0 mm 5 m/s 758 mmHg 26%
23:00 +33°C° 0 mm 5 m/s 758 mmHg 27%

28 Junho, Segunda-feira

Tempo Temperatura Precipitação Vento Pressão Humidade
00:00 +33°C° 0 mm 6 m/s 757 mmHg 27%
01:00 +33°C° 0 mm 6 m/s 757 mmHg 27%
02:00 +32°C° 0 mm 5 m/s 757 mmHg 27%
03:00 +32°C° 0 mm 5 m/s 757 mmHg 26%
04:00 +32°C° 0 mm 5 m/s 757 mmHg 26%
05:00 +33°C° 0 mm 5 m/s 757 mmHg 24%
06:00 +35°C° 0 mm 5 m/s 757 mmHg 22%
07:00 +36°C° 0 mm 5 m/s 758 mmHg 20%
08:00 +39°C° 0 mm 5 m/s 758 mmHg 18%
09:00 +41°C° 0 mm 5 m/s 758 mmHg 17%
10:00 +43°C° 0 mm 5 m/s 758 mmHg 15%
11:00 +45°C° 0 mm 5 m/s 758 mmHg 16%
12:00 +45°C° 0 mm 6 m/s 758 mmHg 16%
13:00 +46°C° 0 mm 6 m/s 757 mmHg 17%
14:00 +45°C° 0 mm 7 m/s 757 mmHg 19%
15:00 +44°C° 0 mm 7 m/s 757 mmHg 20%
16:00 +44°C° 0 mm 8 m/s 757 mmHg 21%
17:00 +41°C° 0 mm 7 m/s 757 mmHg 22%
18:00 +40°C° 0 mm 7 m/s 757 mmHg 23%
19:00 +39°C° 0 mm 7 m/s 757 mmHg 24%
20:00 +36°C° 0 mm 6 m/s 758 mmHg 26%
21:00 +35°C° 0 mm 5 m/s 758 mmHg 29%
22:00 +33°C° 0 mm 5 m/s 759 mmHg 31%
23:00 +33°C° 0 mm 5 m/s 758 mmHg 31%

29 Junho, Terça-feira

Tempo Temperatura Precipitação Vento Pressão Humidade
00:00 +33°C° 0 mm 5 m/s 758 mmHg 31%
01:00 +33°C° 0 mm 5 m/s 758 mmHg 31%
02:00 +33°C° 0 mm 5 m/s 758 mmHg 30%
03:00 +33°C° 0 mm 4 m/s 758 mmHg 29%
04:00 +33°C° 0 mm 4 m/s 757 mmHg 28%
05:00 +34°C° 0 mm 4 m/s 757 mmHg 26%
06:00 +35°C° 0 mm 5 m/s 758 mmHg 23%
07:00 +37°C° 0 mm 5 m/s 758 mmHg 21%
08:00 +40°C° 0 mm 4 m/s 758 mmHg 19%
09:00 +42°C° 0 mm 4 m/s 758 mmHg 18%
10:00 +43°C° 0 mm 3 m/s 758 mmHg 16%
11:00 +44°C° 0 mm 4 m/s 758 mmHg 17%
12:00 +44°C° 0 mm 4 m/s 758 mmHg 17%
13:00 +45°C° 0 mm 5 m/s 758 mmHg 18%
14:00 +43°C° 0 mm 5 m/s 757 mmHg 20%
15:00 +42°C° 0 mm 5 m/s 757 mmHg 22%
16:00 +41°C° 0 mm 6 m/s 757 mmHg 24%
17:00 +41°C° 0 mm 5 m/s 757 mmHg 23%
18:00 +40°C° 0 mm 5 m/s 757 mmHg 23%
19:00 +38°C° 0 mm 4 m/s 757 mmHg 23%
20:00 +37°C° 0 mm 4 m/s 757 mmHg 23%
21:00 +36°C° 0 mm 5 m/s 757 mmHg 24%
22:00 +35°C° 0 mm 5 m/s 758 mmHg 24%
23:00 +35°C° 0 mm 5 m/s 758 mmHg 24%

30 Junho, Quarta-feira

Tempo Temperatura Precipitação Vento Pressão Humidade
00:00 +34°C° 0 mm 5 m/s 757 mmHg 24%
01:00 +34°C° 0 mm 5 m/s 757 mmHg 24%
02:00 +34°C° 0 mm 5 m/s 757 mmHg 23%
03:00 +34°C° 0 mm 5 m/s 757 mmHg 23%
04:00 +34°C° 0 mm 5 m/s 756 mmHg 22%
05:00 +35°C° 0 mm 5 m/s 756 mmHg 21%
06:00 +36°C° 0 mm 5 m/s 757 mmHg 20%
07:00 +39°C° 0 mm 5 m/s 757 mmHg 19%
08:00 +41°C° 0 mm 4 m/s 757 mmHg 18%
09:00 +43°C° 0 mm 4 m/s 757 mmHg 16%
10:00 +45°C° 0 mm 3 m/s 757 mmHg 15%
11:00 +45°C° 0 mm 4 m/s 757 mmHg 16%
12:00 +45°C° 0 mm 4 m/s 757 mmHg 16%
13:00 +46°C° 0 mm 5 m/s 756 mmHg 17%
14:00 +45°C° 0 mm 5 m/s 756 mmHg 18%
15:00 +43°C° 0 mm 5 m/s 756 mmHg 19%
16:00 +44°C° 0 mm 6 m/s 756 mmHg 20%
17:00 +41°C° 0 mm 5 m/s 756 mmHg 22%
18:00 +40°C° 0 mm 5 m/s 756 mmHg 24%
19:00 +37°C° 0 mm 4 m/s 757 mmHg 26%
20:00 +37°C° 0 mm 4 m/s 757 mmHg 25%
21:00 +36°C° 0 mm 5 m/s 757 mmHg 23%
22:00 +36°C° 0 mm 5 m/s 758 mmHg 22%
23:00 +35°C° 0 mm 5 m/s 758 mmHg 22%
Mostrar mais